DW7601 San Vito IT current weather conditions

sailwx.info

Wind from 270

Air temperature 22.8° C
Dewpoint 17.0° C

Last reported at 2015-Sep-03 01:31 UTC.
Time now 2015-Sep-03 02:35 UTC

Location: N 39°27' E 009°32'.
View on Google Maps.

See reports from other nearby stations

  
Tides and Currents Weather Stations Pressure Air Temp Water Temp Dewpoint Dewpoint Depression Visibility Wind Speed Wind Dir Waves Ship Positions
date/time (UTC)wind fromknots sea level pressurealtimeterstation pressurevisibilityair tempwater tempwave heightnotes
2015-Sep-03 01:31 270 22.8
2015-Sep-03 01:21 082 22.8
2015-Sep-03 01:11 068 0 22.8
2015-Sep-03 01:01 068 22.8
2015-Sep-03 00:51 338 22.8
2015-Sep-03 00:41 151 22.8
2015-Sep-03 00:11 333 23.3
2015-Sep-03 00:01 188 23.3
2015-Sep-02 23:51 097 23.3
2015-Sep-02 23:41 248 23.3
2015-Sep-02 23:11 286 23.3
2015-Sep-02 22:51 172 23.9
2015-Sep-02 22:41 093 23.9
2015-Sep-02 22:31 058 0 gusting 1 23.9
2015-Sep-02 22:21 060 24.4
2015-Sep-02 21:51 247 24.4
2015-Sep-02 21:41 119 24.4
2015-Sep-02 21:31 073 25.0
2015-Sep-02 21:11 172 25.0
2015-Sep-02 20:51 210 25.6
2015-Sep-02 20:41 297 25.6
2015-Sep-02 20:31 321 25.6
2015-Sep-02 20:21 092 0 gusting 1 25.6
2015-Sep-02 20:11 101 0 gusting 1 26.1
2015-Sep-02 20:01 158 26.1
2015-Sep-02 19:31 158 26.7
2015-Sep-02 19:11 158 27.2
2015-Sep-02 19:01 158 27.2
2015-Sep-02 18:51 158 27.2
2015-Sep-02 18:41 158 27.2
2015-Sep-02 18:21 158 27.8
2015-Sep-02 17:51 158 28.9
2015-Sep-02 17:31 158 29.4
2015-Sep-02 17:11 158 30.6
2015-Sep-02 17:01 158 31.1
2015-Sep-02 16:51 158 32.2
2015-Sep-02 16:41 158 32.8
2015-Sep-02 16:21 158 33.3
2015-Sep-02 16:01 158 34.4
2015-Sep-02 15:31 158 35.0
2015-Sep-02 15:21 158 35.0
2015-Sep-02 15:11 158 34.4
2015-Sep-02 15:01 158 34.4
2015-Sep-02 14:51 158 33.3
2015-Sep-02 14:41 158 34.4
2015-Sep-02 14:31 158 35.0
2015-Sep-02 14:21 158 34.4
2015-Sep-02 14:11 158 35.0
2015-Sep-02 14:01 158 34.4
2015-Sep-02 13:21 158 36.1
2015-Sep-02 13:01 158 36.1
2015-Sep-02 12:51 158 36.1
2015-Sep-02 12:31 158 35.6
2015-Sep-02 12:01 158 35.6
2015-Sep-02 11:31 158 4 gusting 5 35.0
2015-Sep-02 11:21 150 4 gusting 5 35.0
2015-Sep-02 11:11 162 4 gusting 4 35.0
2015-Sep-02 11:01 135 4 gusting 6 35.6
2015-Sep-02 10:41 143 4 gusting 6 36.7
2015-Sep-02 10:31 141 4 gusting 7 36.7
2015-Sep-02 10:21 112 4 gusting 6 36.7
2015-Sep-02 09:51 173 1 gusting 4 36.1
2015-Sep-02 09:41 149 1 gusting 2 35.6
2015-Sep-02 09:31 151 1 gusting 4 35.0
2015-Sep-02 08:51 094 1 gusting 4 32.8
2015-Sep-02 08:41 053 2 gusting 6 32.2
2015-Sep-02 08:31 053 2 gusting 6 31.7
2015-Sep-02 08:21 090 4 gusting 6 31.1
2015-Sep-02 08:11 359 2 gusting 5 30.6
2015-Sep-02 07:51 112 28.3
2015-Sep-02 07:31 112 27.8
2015-Sep-02 06:51 112 26.1
2015-Sep-02 06:41 112 26.1
2015-Sep-02 06:31 112 25.6
2015-Sep-02 06:21 112 25.0
2015-Sep-02 06:11 112 25.0
2015-Sep-02 06:01 112 24.4
2015-Sep-02 05:51 112 23.9
2015-Sep-02 05:41 112 23.9
2015-Sep-02 05:21 112 23.3
2015-Sep-02 05:11 112 23.3
2015-Sep-02 05:01 112 23.9
2015-Sep-02 04:41 112 24.4
2015-Sep-02 04:21 112 25.0
2015-Sep-02 04:11 112 25.0
2015-Sep-02 04:01 112 25.0
2015-Sep-02 03:51 112 25.0
2015-Sep-02 03:41 112 25.0
2015-Sep-02 03:31 112 25.0
2015-Sep-02 03:11 112 25.6
2015-Sep-02 02:51 112 25.6
2015-Sep-02 02:31 112 25.0
2015-Sep-02 02:21 112 25.0
2015-Sep-02 01:51 112 25.0
2015-Sep-02 01:41 112 25.6
2015-Sep-02 01:31 112 25.0
2015-Sep-02 01:11 112 25.0
2015-Sep-02 01:01 112 25.0
2015-Sep-02 00:51 112 25.0
2015-Sep-02 00:41 112 25.0
2015-Sep-02 00:21 112 25.0
2015-Sep-01 23:51 112 25.6
2015-Sep-01 23:41 112 25.6
2015-Sep-01 23:31 112 25.6
2015-Sep-01 23:21 112 25.6
2015-Sep-01 23:11 112 25.6
2015-Sep-01 22:31 331 26.1
2015-Sep-01 22:21 196 0 gusting 1 26.7
2015-Sep-01 22:01 090 26.7
2015-Sep-01 21:51 041 26.7
2015-Sep-01 21:41 112 26.7
2015-Sep-01 21:31 195 27.2
2015-Sep-01 21:21 119 27.8
2015-Sep-01 21:01 355 0 gusting 1 28.3
2015-Sep-01 20:51 338 0 gusting 2 28.3
2015-Sep-01 20:41 029 1 gusting 2 28.9
2015-Sep-01 20:31 003 1 gusting 5 28.9
2015-Sep-01 20:21 045 1 gusting 4 28.3
2015-Sep-01 20:11 342 1 gusting 2 28.9
2015-Sep-01 20:01 330 1 gusting 2 28.9
2015-Sep-01 19:41 292 1 gusting 2 28.9
2015-Sep-01 19:31 323 1 gusting 4 28.9
2015-Sep-01 19:21 332 0 gusting 4 28.9
2015-Sep-01 19:11 357 1 gusting 1 29.4
2015-Sep-01 19:01 352 0 gusting 2 29.4
2015-Sep-01 18:51 265 0 gusting 1 29.4
2015-Sep-01 18:41 019 29.4
2015-Sep-01 18:31 085 29.4
2015-Sep-01 18:21 158 30.0
2015-Sep-01 18:11 077 30.6
2015-Sep-01 18:01 153 1 gusting 2 31.1
2015-Sep-01 17:51 187 1 gusting 4 31.1
2015-Sep-01 17:41 212 1 gusting 4 31.7
2015-Sep-01 17:31 238 1 gusting 2 32.2
2015-Sep-01 17:21 211 1 gusting 2 32.8
2015-Sep-01 17:11 225 1 gusting 2 33.3
2015-Sep-01 17:01 152 2 gusting 6 33.9
2015-Sep-01 16:51 249 2 gusting 5 34.4
2015-Sep-01 16:41 232 1 gusting 4 34.4
2015-Sep-01 16:31 168 2 gusting 5 35.0
2015-Sep-01 16:21 225 2 gusting 6 35.6
2015-Sep-01 16:11 215 3 gusting 6 35.6
2015-Sep-01 16:01 204 2 gusting 6 35.6
2015-Sep-01 15:51 225 2 gusting 5 35.6
2015-Sep-01 15:41 232 4 gusting 7 35.0
2015-Sep-01 15:31 241 4 gusting 8 35.0
2015-Sep-01 15:21 232 4 gusting 5 35.6
2015-Sep-01 15:11 241 4 gusting 7 36.7
2015-Sep-01 15:01 228 2 gusting 6 36.7
2015-Sep-01 14:51 257 2 gusting 6 36.1
2015-Sep-01 14:41 225 3 gusting 6 36.1
2015-Sep-01 14:31 202 4 gusting 6 36.1
2015-Sep-01 14:21 252 4 gusting 5 36.1
2015-Sep-01 14:11 216 4 gusting 4 36.1
2015-Sep-01 14:01 235 4 gusting 7 36.1
2015-Sep-01 13:51 209 4 gusting 8 37.8
2015-Sep-01 13:41 261 4 gusting 8 37.8
2015-Sep-01 13:31 198 4 gusting 7 37.8
2015-Sep-01 13:21 234 4 gusting 6 37.8
2015-Sep-01 13:11 227 4 gusting 5 37.8
2015-Sep-01 13:01 225 4 gusting 6 37.2
2015-Sep-01 12:51 228 4 gusting 7 37.2
2015-Sep-01 12:41 241 4 gusting 7 37.2
2015-Sep-01 12:31 180 4 gusting 7 37.8
2015-Sep-01 12:21 164 2 gusting 6 37.2
2015-Sep-01 12:11 232 4 gusting 6 37.2
2015-Sep-01 12:01 232 2 gusting 6 36.7
2015-Sep-01 11:51 180 2 gusting 4 36.7
2015-Sep-01 11:41 193 2 gusting 5 36.1
2015-Sep-01 11:31 195 4 gusting 6 35.6
2015-Sep-01 11:21 158 4 gusting 7 35.0
2015-Sep-01 11:11 151 4 gusting 7 33.9
2015-Sep-01 11:01 167 4 gusting 7 35.0
2015-Sep-01 10:51 151 4 gusting 6 35.0
2015-Sep-01 10:41 142 4 gusting 6 36.1
2015-Sep-01 10:31 203 2 gusting 6 36.7
2015-Sep-01 10:21 248 2 gusting 6 36.1
2015-Sep-01 10:11 205 2 gusting 6 36.7
2015-Sep-01 10:01 248 2 gusting 5 36.1
2015-Sep-01 09:51 225 2 gusting 4 35.6
2015-Sep-01 09:41 241 2 gusting 6 35.0
2015-Sep-01 09:31 185 0 gusting 4 34.4
2015-Sep-01 09:21 156 1 gusting 2 34.4
2015-Sep-01 09:11 037 1 gusting 2 33.9
2015-Sep-01 09:01 158 1 gusting 2 33.3
2015-Sep-01 08:51 135 1 gusting 2 32.8
2015-Sep-01 08:41 147 1 gusting 4 32.2
2015-Sep-01 08:31 135 0 gusting 2 31.1
2015-Sep-01 08:21 175 0 gusting 1 30.6
2015-Sep-01 08:11 123 1 gusting 2 29.4
2015-Sep-01 08:01 068 1 gusting 4 28.9
2015-Sep-01 07:51 068 2 gusting 4 27.8
2015-Sep-01 07:41 068 1 gusting 4 27.2
2015-Sep-01 07:31 068 1 gusting 2 26.1
2015-Sep-01 07:21 128 2 gusting 4 25.6
2015-Sep-01 07:11 062 2 gusting 5 24.4
2015-Sep-01 07:01 225 2 gusting 5 23.9
2015-Sep-01 06:51 046 2 gusting 5 23.3
2015-Sep-01 06:41 052 4 gusting 6 22.2
2015-Sep-01 06:31 035 4 gusting 6 21.7
2015-Sep-01 06:21 022 2 gusting 6 21.7
2015-Sep-01 06:11 055 4 gusting 7 21.1
2015-Sep-01 06:01 068 4 gusting 6 21.1
2015-Sep-01 05:51 101 2 gusting 6 21.1
2015-Sep-01 05:41 057 2 gusting 6 20.6
2015-Sep-01 05:31 080 1 gusting 6 20.6
2015-Sep-01 05:21 058 1 gusting 4 20.6
2015-Sep-01 05:11 332 1 gusting 2 20.6
2015-Sep-01 05:01 112 2 gusting 5 20.6
2015-Sep-01 04:51 334 1 gusting 4 20.6
2015-Sep-01 04:41 022 2 gusting 4 20.6
2015-Sep-01 04:31 046 1 gusting 4 20.6
2015-Sep-01 04:21 033 1 gusting 4 20.6
2015-Sep-01 04:11 068 1 gusting 1 21.1
2015-Sep-01 04:01 045 2 gusting 4 21.1
2015-Sep-01 03:51 090 21.1
2015-Sep-01 03:41 090 21.1
2015-Sep-01 03:31 090 21.1
2015-Sep-01 03:21 090 21.7
2015-Sep-01 03:11 090 21.7
2015-Sep-01 03:01 090 21.7
2015-Sep-01 02:51 090 21.7
2015-Sep-01 02:41 090 21.7
2015-Sep-01 02:31 090 21.7
2015-Sep-01 02:21 090 21.7
2015-Sep-01 02:11 090 21.7
2015-Sep-01 02:01 090 21.7